Wind_Speed
36 38 39 41 42 43 43 41 39 38 36 35 34 32 31 29 27 27 26 27 28 30 32 30 28 28 28 27 26 25 25 24 24 24 24 23 22 21 20 19 17 17 16
39 41 42 42 43 43 43 42 40 40 38 36 35 33 31 30 28 25 25 25 25 27 29 29 28 29 28 27 26 25 25 25 24 25 24 23 22 21 20 19 18 17 16
41 43 44 42 41 41 41 41 41 41 40 39 37 35 33 31 28 27 26 25 25 27 29 29 29 29 28 28 27 27 26 26 26 26 26 24 23 22 22 20 18 18 17
37 38 36 36 37 38 40 41 41 41 41 40 38 37 35 33 32 29 28 28 28 28 29 29 29 30 30 29 29 29 29 28 28 28 28 27 25 24 23 22 20 19 18
30 30 30 30 33 35 37 39 41 42 43 42 41 39 38 37 36 34 33 32 32 32 32 32 31 31 32 32 32 31 31 31 30 30 30 29 27 26 25 23 22 20 19
29 30 31 32 33 35 38 40 42 43 44 44 43 43 42 41 40 39 38 38 37 36 36 36 35 35 35 35 34 34 33 33 32 32 32 31 30 29 27 26 24 22 20
31 33 34 35 37 39 41 43 44 45 45 46 46 46 46 46 45 45 44 44 43 43 42 41 41 40 39 38 38 38 37 36 35 35 34 34 33 32 30 28 27 25 23
36 37 38 39 40 41 43 44 45 46 47 47 48 49 49 50 50 50 50 50 49 49 49 48 47 47 46 44 42 42 41 40 39 38 38 37 36 35 33 31 29 28 26
39 40 41 42 43 44 45 46 47 47 48 49 50 51 51 52 52 53 54 55 55 55 55 55 54 53 52 51 49 47 46 45 44 43 42 40 39 38 36 34 32 30 28
42 44 45 46 47 48 49 50 50 49 49 48 47 47 48 48 49 50 51 53 56 58 60 61 60 59 58 57 56 54 52 51 50 48 46 44 43 41 39 37 35 32 30
46 47 49 51 52 54 54 53 52 50 48 46 45 45 46 47 47 47 48 50 52 55 58 61 63 64 64 63 62 61 59 57 55 54 51 49 47 44 42 40 38 35 32
49 51 53 54 55 55 54 52 51 50 50 50 50 50 50 50 49 49 49 49 49 51 54 57 60 64 67 68 68 66 65 63 60 59 57 54 52 49 46 43 40 38 35
51 53 54 55 54 53 51 50 50 52 53 54 55 55 55 54 53 51 50 50 49 49 50 53 56 60 64 68 70 70 70 69 66 63 61 59 56 53 50 46 43 40 37
51 53 53 52 50 49 49 50 52 55 56 57 58 58 58 57 56 54 53 51 50 49 49 50 52 54 58 63 67 71 72 72 70 68 64 62 59 57 53 50 46 43 40
51 51 50 48 47 48 50 52 55 56 58 59 60 60 60 59 57 55 53 51 50 49 48 48 48 49 52 55 58 63 69 72 72 71 68 64 61 59 56 53 49 46 43
51 50 48 47 48 50 52 55 56 58 60 61 61 60 58 57 55 54 51 50 49 49 49 48 48 47 48 49 52 55 59 64 69 70 70 68 64 61 59 56 52 48 45
51 49 47 48 50 52 55 57 58 60 61 59 58 57 57 55 54 52 50 48 46 46 47 47 47 47 46 45 45 47 49 53 58 64 68 68 66 63 59 57 55 50 47
50 48 47 48 51 54 56 57 58 59 59 58 58 56 55 52 49 47 46 44 43 43 44 45 45 45 44 43 42 42 43 45 48 52 58 63 65 66 61 56 54 51 48
49 48 48 50 52 55 56 56 56 57 57 57 55 53 51 47 44 42 39 38 38 39 40 42 43 44 43 43 42 40 39 39 41 43 46 52 58 62 62 58 54 52 49
49 47 48 50 53 55 56 55 55 55 55 55 52 49 45 41 39 35 33 31 32 33 36 40 41 42 42 41 41 40 38 36 36 38 39 43 48 53 58 58 55 52 49
48 46 48 51 54 55 55 54 54 54 53 51 49 45 41 38 34 30 27 26 27 29 32 36 38 40 40 40 40 39 37 35 34 34 35 36 41 46 51 54 55 52 50
47 46 47 51 53 54 53 52 52 51 50 49 47 43 38 34 30 25 21 20 21 23 26 30 33 36 37 37 37 37 35 34 33 33 33 33 36 42 47 51 52 51 49
47 45 47 50 52 53 53 51 50 49 48 46 44 40 36 32 28 22 17 14 14 17 21 25 28 31 34 34 35 35 34 33 32 32 32 32 34 38 43 48 51 50 49
46 44 46 49 51 52 52 50 49 48 46 44 42 38 35 31 27 21 15 9 7 11 16 21 24 27 31 32 33 33 33 32 31 31 32 31 32 36 41 46 48 49 48
46 44 45 47 49 51 51 49 47 46 45 43 41 37 34 30 26 21 15 9 3 5 11 16 20 24 27 30 31 32 32 31 31 31 31 31 33 36 39 44 47 48 47
46 44 44 46 48 49 49 48 46 45 43 41 39 37 34 30 26 22 17 12 6 2 8 12 16 19 23 26 28 29 29 30 30 31 31 32 34 36 41 45 46 47 47
Wind_Direction
281 284 287 290 291 294 297 297 299 301 302 305 307 310 313 309 299 288 277 263 255 253 254 252 253 253 254 255 255 255 252 250 248 246 245 247 249 251 254 255 258 263 267
282 285 287 288 289 292 294 295 297 299 300 303 305 309 311 307 303 291 281 272 265 260 254 251 251 252 253 254 253 251 249 247 244 243 242 243 245 247 250 252 256 262 268
286 286 286 286 287 288 290 291 292 295 297 299 301 304 305 304 299 292 283 278 275 268 262 258 256 254 254 252 252 251 249 245 243 241 241 243 244 246 248 250 254 261 269
290 291 288 285 285 286 287 288 290 292 294 296 297 298 297 296 294 290 283 279 274 271 267 265 261 257 254 252 251 251 249 245 242 240 241 243 244 248 249 250 252 259 266
296 296 294 292 291 291 291 291 292 292 292 293 293 293 291 289 287 284 280 276 272 270 268 266 264 259 256 253 251 250 249 246 243 240 240 242 245 248 250 251 253 257 264
303 302 301 300 299 297 296 295 294 294 293 292 291 289 287 284 281 277 274 271 268 266 264 262 260 257 255 253 250 249 249 247 244 242 241 241 243 246 249 253 255 257 262
303 303 303 301 299 298 296 295 294 293 291 289 287 285 282 279 276 273 269 266 263 261 259 257 255 254 252 252 251 249 248 247 245 243 242 242 242 244 247 251 255 258 261
306 305 302 301 299 297 295 294 292 290 288 286 284 282 280 277 274 270 267 263 260 258 256 253 251 251 250 249 249 248 247 247 246 244 243 242 242 243 244 246 251 256 259
309 308 306 304 302 301 299 297 295 293 291 289 286 284 281 279 275 272 267 263 259 256 254 252 249 248 247 246 245 245 246 246 245 245 244 243 243 243 243 244 247 251 256
313 312 310 309 308 307 306 304 302 300 298 296 293 290 287 283 279 275 271 267 261 257 253 250 248 247 245 245 244 243 243 244 244 243 243 243 243 243 242 243 244 247 252
317 317 316 315 314 313 312 310 309 308 306 303 300 297 293 289 284 281 276 271 266 261 255 251 248 246 244 242 242 241 241 241 242 242 242 242 242 242 242 242 243 244 248
321 319 318 317 316 315 314 312 311 310 308 306 303 300 297 292 288 283 279 274 270 265 259 253 250 246 244 242 240 240 239 239 240 240 240 240 240 240 241 241 241 242 244
321 320 319 318 316 315 313 312 311 310 308 306 303 300 297 293 289 284 280 275 271 266 261 257 253 248 245 243 241 239 239 238 238 238 238 238 238 238 239 240 240 240 241
322 320 319 318 317 316 314 313 311 309 307 305 303 301 297 293 289 285 280 275 270 265 261 258 254 251 247 245 242 240 239 238 237 236 237 237 236 236 237 238 238 238 239
324 323 321 320 319 318 316 314 312 310 308 306 304 302 298 294 290 286 281 275 269 264 259 256 253 251 248 246 244 242 239 238 238 236 235 235 235 234 234 235 236 236 237
328 326 324 323 321 320 318 316 314 312 310 309 306 304 301 296 291 286 281 275 267 261 257 252 249 248 248 246 245 243 242 240 238 237 235 234 233 232 231 232 233 233 234
331 329 327 325 324 322 321 319 317 315 314 312 309 306 302 298 293 288 281 274 266 260 255 249 246 244 244 244 243 242 241 240 240 238 236 234 232 231 230 230 230 231 231
333 332 330 328 327 325 324 323 321 320 318 315 313 310 306 301 295 290 282 273 264 256 251 246 243 241 239 239 240 241 240 239 238 239 237 234 233 231 229 228 228 228 229
336 335 334 332 330 329 328 327 325 325 323 321 318 314 310 304 299 293 283 272 263 255 249 242 239 238 236 236 236 237 237 236 235 235 236 235 232 231 230 228 226 225 225
338 337 336 334 333 333 333 331 330 329 328 327 325 321 316 311 306 297 285 272 262 254 246 238 235 233 232 233 233 233 232 231 231 231 232 232 229 228 227 226 224 223 222
339 338 337 336 336 337 337 335 334 334 334 334 333 330 326 321 315 305 291 276 264 253 243 234 230 228 228 229 229 228 228 227 226 226 226 227 225 222 221 221 221 220 218
340 338 339 339 340 340 340 340 340 340 340 340 340 338 336 332 326 315 299 282 265 250 238 228 225 223 223 224 224 224 224 222 222 222 222 223 222 219 217 216 216 216 215
342 340 341 341 343 344 344 345 346 346 346 346 347 347 346 343 340 333 318 293 264 243 231 223 220 219 218 219 220 220 220 219 219 218 219 220 218 215 213 212 212 212 212
344 343 343 344 346 347 349 349 350 351 352 353 354 354 354 354 353 352 346 327 276 233 221 217 217 217 216 216 217 218 218 217 217 217 217 216 213 210 209 208 206 207 208
347 345 345 347 349 351 352 354 354 355 356 357 359 360 360 1 2 5 6 4 344 213 208 209 211 212 213 214 215 215 215 215 215 215 213 212 209 206 204 202 201 203 204
348 347 347 349 351 354 355 357 358 359 360 1 3 4 6 7 9 11 14 14 12 215 203 204 205 206 208 209 211 212 212 213 213 213 211 208 205 201 199 196 197 199 201
Height
5851 5848 5846 5842 5839 5836 5833 5830 5827 5824 5822 5819 5815 5810 5806 5803 5801 5799 5797 5797 5797 5799 5801 5803 5804 5807 5809 5811 5812 5813 5815 5816 5817 5819 5820 5822 5824 5825 5827 5828 5829 5830 5830
5844 5841 5838 5834 5831 5829 5826 5823 5820 5817 5814 5812 5808 5805 5802 5799 5797 5795 5794 5792 5792 5793 5795 5796 5797 5800 5801 5803 5804 5806 5808 5809 5811 5812 5814 5816 5818 5820 5821 5823 5824 5825 5825
5836 5832 5829 5826 5823 5821 5818 5815 5812 5809 5806 5803 5801 5799 5796 5794 5792 5791 5789 5788 5788 5788 5790 5790 5791 5792 5793 5795 5797 5799 5800 5802 5804 5806 5808 5810 5812 5814 5816 5818 5819 5820 5821
5827 5824 5820 5817 5815 5812 5810 5806 5803 5800 5798 5795 5793 5791 5789 5788 5786 5785 5784 5784 5782 5783 5783 5783 5784 5785 5785 5787 5789 5791 5793 5795 5797 5799 5801 5804 5805 5808 5810 5812 5814 5815 5815
5820 5817 5813 5810 5807 5804 5801 5797 5794 5791 5788 5786 5783 5781 5780 5778 5778 5777 5776 5776 5776 5776 5775 5775 5776 5777 5778 5779 5781 5782 5784 5787 5790 5792 5795 5797 5799 5801 5803 5805 5808 5809 5810
5814 5811 5807 5803 5799 5796 5792 5788 5785 5781 5777 5774 5771 5769 5768 5767 5766 5766 5766 5766 5765 5766 5766 5766 5767 5768 5769 5770 5771 5773 5776 5778 5781 5784 5787 5790 5792 5794 5796 5798 5801 5803 5805
5808 5804 5800 5795 5791 5787 5782 5778 5773 5769 5765 5761 5758 5756 5754 5752 5752 5751 5752 5752 5752 5753 5754 5755 5756 5757 5758 5760 5761 5763 5766 5768 5771 5774 5778 5781 5784 5787 5789 5791 5794 5796 5798
5800 5796 5791 5786 5781 5776 5771 5766 5761 5757 5752 5748 5744 5741 5738 5736 5735 5734 5734 5735 5736 5737 5738 5740 5742 5744 5746 5748 5750 5752 5755 5757 5760 5764 5767 5771 5774 5778 5781 5784 5786 5789 5791
5791 5785 5780 5774 5769 5763 5758 5752 5747 5742 5737 5732 5728 5724 5721 5719 5717 5716 5715 5716 5717 5718 5720 5722 5725 5728 5731 5734 5737 5739 5742 5745 5749 5752 5756 5760 5764 5768 5772 5775 5778 5781 5783
5780 5774 5767 5760 5754 5747 5741 5735 5729 5724 5719 5715 5710 5706 5703 5700 5697 5696 5695 5695 5696 5697 5699 5702 5705 5709 5713 5717 5721 5725 5728 5732 5736 5740 5744 5748 5753 5757 5761 5765 5769 5772 5775
5768 5760 5753 5745 5738 5730 5723 5716 5710 5705 5700 5696 5692 5689 5685 5682 5679 5677 5675 5674 5674 5675 5678 5680 5684 5688 5692 5697 5702 5707 5712 5716 5721 5725 5730 5735 5740 5745 5750 5755 5759 5763 5766
5756 5748 5739 5731 5724 5716 5708 5701 5695 5689 5684 5679 5674 5670 5666 5663 5660 5658 5656 5654 5654 5654 5655 5658 5661 5665 5670 5675 5681 5686 5693 5699 5704 5709 5715 5721 5726 5732 5737 5743 5748 5753 5757
5746 5737 5729 5720 5712 5704 5696 5689 5682 5675 5669 5663 5657 5652 5647 5643 5640 5638 5636 5634 5634 5634 5635 5636 5639 5643 5647 5652 5658 5665 5671 5678 5685 5692 5699 5706 5712 5718 5724 5730 5736 5742 5747
5737 5728 5718 5709 5700 5692 5684 5677 5669 5661 5653 5646 5639 5633 5627 5622 5619 5616 5614 5613 5613 5614 5615 5617 5619 5622 5626 5630 5636 5643 5650 5657 5665 5673 5681 5689 5697 5704 5711 5717 5724 5730 5736
5727 5717 5707 5698 5689 5681 5673 5664 5655 5646 5637 5629 5621 5613 5606 5601 5596 5594 5592 5591 5591 5593 5594 5597 5600 5603 5607 5611 5616 5622 5629 5637 5645 5654 5663 5671 5680 5688 5696 5704 5711 5718 5725
5717 5707 5697 5687 5679 5670 5661 5652 5641 5631 5621 5611 5602 5593 5585 5579 5574 5571 5569 5568 5569 5571 5574 5577 5581 5585 5589 5594 5598 5604 5610 5617 5625 5634 5643 5653 5662 5672 5680 5689 5697 5705 5713
5707 5697 5687 5678 5668 5659 5649 5638 5627 5615 5604 5593 5583 5573 5565 5558 5552 5548 5546 5546 5547 5549 5553 5557 5562 5567 5573 5577 5583 5588 5594 5601 5608 5616 5625 5634 5644 5655 5665 5674 5683 5692 5701
5698 5688 5678 5668 5658 5648 5637 5625 5613 5600 5588 5577 5565 5554 5545 5537 5531 5527 5525 5525 5526 5529 5534 5539 5545 5551 5557 5562 5568 5574 5580 5586 5593 5600 5608 5617 5627 5638 5649 5659 5670 5680 5689
5689 5679 5669 5659 5649 5638 5626 5613 5600 5587 5574 5561 5549 5537 5526 5518 5512 5508 5505 5505 5507 5511 5515 5521 5528 5535 5542 5548 5555 5561 5567 5574 5580 5587 5594 5602 5611 5623 5635 5647 5658 5668 5678
5682 5672 5662 5652 5641 5629 5616 5603 5590 5577 5563 5549 5535 5523 5512 5503 5497 5492 5489 5489 5491 5495 5499 5506 5513 5521 5528 5536 5542 5549 5556 5563 5570 5576 5583 5590 5599 5608 5620 5634 5646 5657 5667
5675 5666 5656 5645 5633 5621 5608 5595 5581 5567 5553 5539 5525 5512 5501 5492 5485 5480 5477 5476 5478 5481 5486 5492 5500 5508 5516 5524 5531 5538 5546 5553 5559 5566 5573 5580 5588 5597 5608 5622 5635 5646 5656
5670 5660 5650 5639 5627 5614 5601 5588 5574 5560 5546 5532 5518 5506 5495 5485 5477 5472 5468 5467 5468 5471 5475 5482 5490 5498 5506 5514 5522 5529 5536 5544 5550 5557 5564 5571 5579 5588 5598 5611 5623 5634 5646
5665 5655 5645 5634 5622 5609 5595 5582 5569 5555 5541 5528 5515 5502 5492 5482 5474 5468 5463 5462 5462 5465 5469 5475 5483 5490 5498 5506 5513 5521 5528 5536 5543 5549 5556 5563 5571 5579 5589 5601 5613 5625 5637
5660 5651 5641 5630 5618 5605 5591 5578 5565 5551 5538 5525 5513 5502 5491 5482 5474 5467 5463 5460 5459 5462 5466 5471 5478 5484 5492 5499 5506 5514 5521 5529 5536 5542 5549 5556 5563 5572 5581 5593 5605 5617 5629
5657 5647 5637 5626 5614 5602 5589 5576 5563 5550 5538 5525 5514 5503 5493 5484 5476 5470 5465 5463 5462 5463 5466 5470 5475 5481 5487 5494 5501 5508 5515 5523 5529 5536 5543 5549 5557 5565 5574 5586 5598 5610 5621
5654 5644 5634 5623 5612 5600 5587 5575 5563 5550 5538 5527 5516 5505 5496 5487 5480 5474 5470 5466 5465 5465 5467 5470 5474 5479 5484 5490 5497 5504 5511 5517 5524 5530 5537 5544 5551 5559 5569 5580 5592 5604 5615